Regional Weather Roundup
Issued by NWS Huntsville, AL

Home | Current Version | Previous Version | Text Only | Print | Product List | Glossary On
Versions: 1 2 3 4 5 6 7 8 9 10 11 12 13 14 15 16 17 18 19 20 21 22 23 24 25 26 27 28 29 30 31 32 33 34 35 36 37 38 39 40 41 42 43 44 45 46 47 48 49 50
000
ASUS44 KHUN 170024
RWRHUN

WEATHER ROUNDUP FOR THE TENNESSEE VALLEY
NATIONAL WEATHER SERVICE HUNTSVILLE AL
700 PM CDT WED APR 16 2014

ALZ001>004-170100-
NORTHWEST ALABAMA

CITY           SKY/WX    TMP DP  RH WIND       PRES   REMARKS
COURTLAND HCN    N/A     61 N/A N/A SE7         N/A
RUSSELLVILLE     N/A     61 N/A N/A MISG        N/A
SHOALS AIRPORT CLEAR     61  33  35 CALM      30.15S
6HR MIN TEMP:  55; 6HR MAX TEMP:  63;

SHOALS TVA RES   N/A     59 N/A N/A MISG        N/A
$$

ALZ005>007-016-170100-
NORTH CENTRAL ALABAMA

CITY           SKY/WX    TMP DP  RH WIND       PRES   REMARKS
CULLMAN AG STN   N/A     61 N/A N/A SE5         N/A
DECATUR AP     CLEAR     60  33  36 SE7       30.16S
6HR MIN TEMP:  55; 6HR MAX TEMP:  65;

HUNTSVILLE AP  PTCLDY    60  35  39 SE7       30.16R
6HR MIN TEMP:  55; 6HR MAX TEMP:  65;

HUN NWS/UAH      N/A     59  30  32 SE3         N/A
MERIDIANVILLE  CLEAR     59  23  25 SE3       30.17S
VINEMONT AP    FAIR      58  33  37 SE3       30.17S
$$

ALZ008>010-170100-
NORTHEAST ALABAMA

CITY           SKY/WX    TMP DP  RH WIND       PRES   REMARKS
ALBERTVILLE    CLEAR     57  37  47 SE3       30.16S
CROSSVILLE       N/A     54 N/A N/A CALM        N/A
FORT PAYNE     CLEAR     57  23  26 E3        30.18S
SCOTTSBORO AP  CLEAR     59  28  31 S5        30.18S
SCOTTSBORO HCN   N/A     61 N/A N/A MISG        N/A
VALLEY HEAD      N/A     57 N/A N/A MISG        N/A
$$

TNZ076-096-097-170100-
SOUTHEASTERN MIDDLE TENNESSEE

CITY           SKY/WX    TMP DP  RH WIND       PRES   REMARKS
FAYETTEVILLE   FAIR      58  29  33 S8        30.16S
TULLAHOMA      CLEAR     57  25  28 S7        30.18R
WINCHESTER     CLEAR     55  28  35 S8        30.17S
$$

...SURROUNDING SITES...

CITY           SKY/WX    TMP DP  RH WIND       PRES   REMARKS
ATLANTA        PTCLDY    57  27  31 E13       30.24R
ANNISTON       CLEAR     62  31  31 SE5       30.19R
BIRMINGHAM     CLEAR     63  30  28 SE7       30.18R
CHATTANOOGA    PTCLDY    62  24  23 S8        30.19S
CORINTH        FAIR      59  28  31 S5        30.13S
DALTON         CLEAR     55  30  38 CALM      30.22R
GADSDEN        NOT AVBL
GOLDEN TRNGL   CLEAR     61  36  39 SW7       30.17R
HALEYVILLE     FAIR      60  29  31 CALM      30.17R
JACKSON TN     PTCLDY    60  23  24 CALM      30.12S
LEWISBURG      FAIR      58  29  33 SW5       30.15S
MEMPHIS        CLOUDY    60  26  27 S7        30.10S
MURFREESBORO   FAIR      61  24  24 S3        30.16R
NASHVILLE      MOCLDY    58  27  30 E5        30.17S
OXFORD MS      FAIR      57  28  33 CALM      30.14S
ROME           CLEAR     59  31  34 SE6       30.21R
SAVANNAH       CLEAR     59  29  32 CALM      30.14S
TUPELO         CLEAR     59  33  37 SW6       30.13S
TUSCALOOSA     CLEAR     64  34  32 E5        30.14S
$$

...GULF COAST WEATHER...

CITY           SKY/WX    TMP DP  RH WIND       PRES   REMARKS
GULFPORT       PTCLDY    59  44  57 SE8       30.14S
PASCAGOULA     PTCLDY    57  45  64 SE8       30.15S
MOBILE         PTCLDY    57  45  64 S7        30.15R
GULF SHORES    CLEAR     56  47  71 CALM      30.15R
PENSACOLA      PTCLDY    58  46  64 S5        30.14S
DESTIN           N/A    N/A N/A N/A MISG      30.14R
PANAMA CITY    DRIZZLE   62  54  75 W6        30.13S
APPALACHICOLA  CLEAR     66  49  54 E9        30.13R
$$




USA.gov is the U.S. government's official web portal to all federal, state and local government web resources and services.